Вернуться в каталог

STARLINK-34443

АктивенСвязьVLEO
NORAD 64296·PAYLOAD·🇺🇸 United States

Запущен Jun 8, 2025 с Vandenberg Space Force Base

Loading…

Ближайшие Пролёты (ближайшие 24 часа)

TLE

СвежийSource: CelesTrak SupGP

Эпоха: Sep 15, 2026, 03:40 UTC

1 64296C 25123F   26258.15326389 -.00046810  00000+0 -16283-2 0  2580
2 64296  69.9998  74.9814 0003298 268.4886  62.8294 15.29603001    15

Отслеживайте STARLINK-34443 в реальном времени с AllMySat

Download on the App Store